Total_Precipitation_Accumulation
0.02 0.03 0.04 0.06 0.08 0.11 0.14 0.16 0.19 0.19 0.21 0.24 0.30 0.34 0.35 0.42 0.60 0.78 0.76 0.68 0.74 0.83 0.92 1.03 1.07 1.12 1.11 1.01 0.96 0.93 0.93 1.02 0.97 0.83 0.77 0.79 0.68 0.52 0.45 0.43 0.40 0.38 0.34
0.02 0.02 0.03 0.05 0.06 0.07 0.09 0.13 0.16 0.19 0.18 0.18 0.20 0.24 0.27 0.34 0.50 0.81 0.98 1.01 0.98 0.91 0.96 1.12 1.20 1.17 1.08 1.02 1.01 0.97 0.96 1.04 0.99 0.90 0.88 0.83 0.75 0.65 0.56 0.50 0.41 0.37 0.35
0.01 0.02 0.02 0.02 0.04 0.05 0.07 0.10 0.13 0.17 0.18 0.18 0.19 0.24 0.29 0.30 0.37 0.57 0.80 0.92 0.95 0.92 0.97 1.02 1.05 1.12 1.10 1.02 0.96 0.94 0.93 1.03 1.03 0.94 1.01 1.00 0.89 0.77 0.64 0.54 0.46 0.43 0.36
0.01 0.01 0.02 0.02 0.03 0.05 0.06 0.09 0.12 0.15 0.17 0.21 0.24 0.29 0.31 0.27 0.28 0.41 0.56 0.67 0.73 0.78 0.84 0.89 0.92 0.95 1.02 1.07 1.00 0.96 0.97 0.99 1.00 0.99 1.04 1.18 1.08 0.92 0.73 0.60 0.52 0.47 0.42
0.03 0.04 0.04 0.04 0.04 0.05 0.06 0.09 0.11 0.12 0.13 0.19 0.26 0.29 0.27 0.24 0.28 0.41 0.46 0.42 0.47 0.53 0.56 0.58 0.69 0.85 0.95 1.00 0.96 0.94 0.98 0.98 0.98 1.03 1.07 1.21 1.23 1.06 0.82 0.63 0.54 0.52 0.49
0.08 0.10 0.08 0.09 0.09 0.09 0.10 0.11 0.12 0.14 0.17 0.20 0.23 0.26 0.25 0.20 0.26 0.30 0.28 0.27 0.30 0.35 0.38 0.37 0.38 0.50 0.69 0.81 0.84 0.84 0.89 0.93 0.97 1.00 1.07 1.16 1.21 1.11 0.93 0.78 0.64 0.53 0.51
0.07 0.12 0.13 0.13 0.13 0.10 0.10 0.12 0.14 0.18 0.22 0.26 0.27 0.29 0.29 0.30 0.23 0.19 0.16 0.18 0.22 0.29 0.33 0.33 0.26 0.25 0.39 0.54 0.65 0.69 0.71 0.71 0.79 0.94 1.06 1.08 1.18 1.21 1.12 0.93 0.80 0.68 0.55
0.05 0.12 0.17 0.18 0.17 0.15 0.17 0.20 0.23 0.26 0.29 0.32 0.33 0.36 0.42 0.39 0.27 0.18 0.14 0.15 0.20 0.27 0.32 0.32 0.31 0.31 0.33 0.39 0.51 0.59 0.64 0.62 0.60 0.68 0.85 1.04 1.19 1.33 1.28 1.18 1.07 0.95 0.78
0.08 0.13 0.18 0.25 0.26 0.25 0.27 0.31 0.35 0.38 0.37 0.37 0.39 0.43 0.49 0.53 0.40 0.25 0.19 0.19 0.25 0.28 0.32 0.33 0.33 0.32 0.29 0.25 0.34 0.41 0.48 0.57 0.57 0.59 0.71 0.93 1.11 1.26 1.40 1.33 1.20 1.00 0.84
0.13 0.17 0.23 0.31 0.36 0.35 0.37 0.41 0.43 0.47 0.45 0.43 0.41 0.45 0.51 0.62 0.52 0.31 0.23 0.26 0.34 0.38 0.44 0.44 0.35 0.28 0.23 0.18 0.26 0.35 0.39 0.42 0.50 0.55 0.62 0.75 0.92 1.04 1.18 1.17 1.03 0.93 0.79
0.22 0.25 0.30 0.36 0.43 0.42 0.44 0.47 0.50 0.51 0.52 0.52 0.50 0.50 0.56 0.63 0.56 0.36 0.29 0.33 0.44 0.51 0.48 0.48 0.44 0.30 0.21 0.17 0.19 0.29 0.32 0.39 0.48 0.53 0.64 0.78 0.93 1.06 1.05 1.04 0.99 0.83 0.73
0.32 0.33 0.36 0.42 0.44 0.43 0.54 0.61 0.66 0.68 0.65 0.63 0.68 0.64 0.61 0.63 0.57 0.43 0.31 0.30 0.44 0.60 0.63 0.59 0.55 0.39 0.26 0.22 0.19 0.20 0.22 0.27 0.43 0.50 0.56 0.68 0.81 0.96 1.04 1.07 1.04 0.90 0.74
0.31 0.33 0.38 0.47 0.53 0.57 0.64 0.68 0.77 0.82 0.79 0.75 0.76 0.80 0.74 0.71 0.68 0.49 0.37 0.30 0.38 0.56 0.72 0.72 0.60 0.47 0.36 0.29 0.27 0.25 0.23 0.24 0.37 0.46 0.47 0.52 0.59 0.74 1.01 1.21 1.29 1.18 0.95
0.36 0.37 0.41 0.47 0.54 0.66 0.77 0.77 0.79 0.83 0.85 0.85 0.82 0.79 0.79 0.79 0.84 0.72 0.56 0.41 0.42 0.57 0.71 0.75 0.65 0.60 0.52 0.44 0.40 0.36 0.31 0.29 0.33 0.42 0.47 0.54 0.64 0.77 0.95 1.14 1.30 1.29 1.12
0.39 0.39 0.43 0.48 0.55 0.69 0.82 0.85 0.76 0.77 0.79 0.76 0.71 0.69 0.71 0.73 0.78 0.72 0.62 0.59 0.62 0.72 0.83 0.95 0.90 0.82 0.76 0.67 0.61 0.56 0.51 0.45 0.39 0.44 0.57 0.63 0.71 0.75 0.84 0.97 1.14 1.20 1.06
0.43 0.41 0.43 0.48 0.56 0.66 0.79 0.85 0.70 0.57 0.55 0.55 0.49 0.44 0.43 0.47 0.57 0.60 0.55 0.53 0.57 0.68 0.84 1.02 0.98 0.90 0.87 0.84 0.80 0.73 0.67 0.60 0.54 0.52 0.58 0.65 0.70 0.73 0.80 0.88 0.96 1.04 1.00
0.53 0.47 0.49 0.51 0.56 0.61 0.71 0.83 0.86 0.70 0.50 0.44 0.35 0.27 0.26 0.29 0.42 0.51 0.57 0.56 0.56 0.60 0.73 0.89 0.89 0.87 0.87 0.90 0.87 0.78 0.70 0.70 0.70 0.66 0.63 0.67 0.71 0.73 0.75 0.83 0.86 0.92 0.96
0.71 0.60 0.52 0.51 0.57 0.62 0.68 0.76 0.87 0.92 0.83 0.65 0.43 0.25 0.21 0.25 0.34 0.48 0.60 0.60 0.63 0.61 0.66 0.77 0.81 0.82 0.83 0.87 0.84 0.82 0.78 0.80 0.80 0.75 0.71 0.70 0.74 0.74 0.72 0.74 0.79 0.79 0.85
0.64 0.67 0.59 0.53 0.57 0.65 0.69 0.74 0.82 0.88 0.96 0.92 0.70 0.41 0.26 0.28 0.37 0.52 0.62 0.62 0.70 0.70 0.70 0.73 0.76 0.76 0.77 0.82 0.84 0.84 0.83 0.84 0.82 0.80 0.78 0.75 0.76 0.77 0.71 0.69 0.74 0.79 0.77
0.50 0.47 0.47 0.54 0.59 0.66 0.71 0.74 0.79 0.87 0.93 0.95 0.83 0.59 0.34 0.30 0.39 0.56 0.65 0.70 0.75 0.74 0.71 0.68 0.72 0.75 0.77 0.78 0.80 0.81 0.83 0.85 0.82 0.78 0.80 0.79 0.76 0.76 0.71 0.70 0.69 0.72 0.69
0.50 0.43 0.33 0.44 0.57 0.63 0.70 0.75 0.77 0.82 0.88 0.90 0.80 0.50 0.28 0.28 0.41 0.56 0.67 0.74 0.71 0.70 0.67 0.65 0.66 0.66 0.67 0.70 0.72 0.72 0.77 0.79 0.77 0.73 0.75 0.78 0.76 0.73 0.70 0.69 0.68 0.67 0.69
0.51 0.50 0.37 0.40 0.53 0.58 0.61 0.74 0.77 0.78 0.79 0.81 0.71 0.44 0.30 0.34 0.47 0.57 0.69 0.70 0.65 0.64 0.61 0.61 0.61 0.59 0.56 0.58 0.65 0.69 0.75 0.76 0.73 0.71 0.71 0.74 0.74 0.73 0.67 0.66 0.68 0.69 0.70
0.45 0.49 0.40 0.38 0.48 0.47 0.53 0.70 0.74 0.72 0.73 0.72 0.57 0.44 0.40 0.49 0.57 0.63 0.69 0.68 0.62 0.59 0.58 0.58 0.56 0.55 0.50 0.50 0.53 0.57 0.66 0.69 0.65 0.62 0.66 0.68 0.72 0.71 0.64 0.59 0.59 0.61 0.61
0.39 0.47 0.39 0.32 0.36 0.44 0.54 0.64 0.68 0.65 0.63 0.63 0.52 0.41 0.40 0.48 0.53 0.55 0.59 0.58 0.53 0.54 0.54 0.51 0.47 0.44 0.43 0.48 0.50 0.47 0.46 0.49 0.50 0.53 0.58 0.61 0.64 0.67 0.63 0.58 0.58 0.58 0.58
0.39 0.45 0.37 0.28 0.28 0.36 0.49 0.59 0.62 0.60 0.57 0.55 0.48 0.41 0.40 0.42 0.44 0.44 0.46 0.45 0.43 0.44 0.42 0.42 0.44 0.44 0.40 0.35 0.35 0.35 0.34 0.33 0.34 0.39 0.50 0.57 0.57 0.61 0.61 0.60 0.61 0.63 0.63
0.35 0.41 0.36 0.26 0.22 0.29 0.41 0.48 0.50 0.50 0.52 0.49 0.44 0.39 0.37 0.39 0.36 0.34 0.35 0.35 0.35 0.36 0.35 0.37 0.39 0.35 0.32 0.29 0.26 0.25 0.25 0.25 0.25 0.28 0.36 0.46 0.53 0.57 0.59 0.59 0.58 0.62 0.64